Vertical_Velocity
-1 1 -2 -4 -2 2 -2 -3 -1 -1 -2 -3 -2 -2 -3 -3 -1 1 -16 -6 -0 2 6 3 -0 1 2 1 4 6 -1 -1 -3 1 -12 -0 -1 -5 5 3 1 -3 0 -4 3
-2 1 -1 1 -3 -4 -1 -0 -3 -4 -1 0 -4 -3 -4 -5 -3 -8 5 -6 2 5 4 2 -0 4 0 -0 -1 -2 0 -6 -4 -2 -3 -1 3 4 1 -1 -2 2 0 2 1
-1 -2 -1 -0 3 -2 -1 -2 -1 1 -1 -1 3 -2 -3 -4 -4 -4 3 -0 2 -1 4 3 5 4 3 6 -3 -1 -4 -4 -9 -3 5 -0 -2 8 1 -1 -5 -5 11 3 1
2 0 -3 -1 -0 1 1 0 0 1 2 0 -3 -1 -1 -4 -5 3 4 -3 -1 5 1 2 4 2 2 -0 -4 4 -1 0 -10 -3 3 -1 4 -2 6 -19 5 -5 7 2 -0
-0 1 3 -5 -2 -2 -1 3 -1 1 -0 4 -1 -3 -1 -3 -36 12 2 1 -1 1 2 3 1 -0 -1 -0 3 4 -3 1 -3 1 -3 9 -3 -7 -7 -3 5 -1 12 -0 0
-0 -1 0 1 1 -4 -2 -3 2 -2 3 2 3 -2 1 -2 -1 0 1 2 2 1 4 2 -3 -2 1 -2 3 -1 1 -4 -2 -4 1 6 -5 15 -18 1 -1 1 -3 8 -2
1 -2 1 0 1 -1 -6 0 -2 3 2 3 1 2 -2 -61 -1 3 0 2 4 1 -0 0 5 17 6 -2 -2 -2 5 -1 -1 -3 -2 7 -3 -2 -8 4 -3 -3 -6 -2 18
2 2 -0 -3 0 -1 -1 -5 2 3 6 4 1 1 -24 -1 -1 -7 9 -5 1 -2 1 3 7 4 7 -0 -5 2 3 1 1 1 -6 10 -21 -7 -9 7 -6 -4 -5 -3 -8
-2 3 1 -4 -2 -5 -1 -6 1 1 6 4 1 2 -25 1 -3 5 -2 -3 5 2 0 2 9 -0 6 -0 -2 0 -2 1 -4 -0 -1 4 -7 -6 -1 8 -2 -2 -3 -0 -6
1 -1 6 -3 -5 -6 -1 -3 -3 5 3 6 7 4 -2 -3 9 1 1 -1 1 3 3 5 3 1 -0 -1 -8 -4 1 1 -1 -3 1 -2 -7 -3 -4 3 0 -2 -8 -3 1
0 0 5 5 -9 2 -11 -11 -2 6 6 -10 -14 -8 -2 5 2 4 13 7 7 7 -1 -1 0 -2 -5 -3 -1 -0 1 0 -1 -2 5 -1 -1 -4 -3 -1 -3 -4 -3 -4 -4
-4 6 0 -4 -0 -5 0 4 5 9 -10 -6 -6 -1 -21 28 -9 -14 9 -3 6 -1 2 2 -3 -4 -0 1 2 1 2 -7 -7 -2 14 -1 -8 -3 -0 -3 1 -0 -5 2 6
6 2 3 -4 -3 3 -3 9 12 6 5 -13 -4 1 -12 5 -11 -34 9 3 0 2 -0 -1 -6 2 1 1 5 -2 1 -2 -1 -3 -1 2 -8 -4 -9 -1 -4 -4 1 -1 7
-0 7 0 -1 -3 2 3 7 10 7 0 -16 -0 -6 6 1 -3 7 -7 0 3 -4 -0 -2 -6 1 2 -0 1 5 -3 2 2 5 -3 -2 -21 -2 -4 -6 -0 -6 -3 -4 7
3 -4 8 -2 -7 1 6 0 7 1 -3 -6 2 10 2 -7 3 3 8 16 -3 -3 2 -17 1 3 5 -13 3 -18 4 -0 1 1 -2 -0 2 -11 0 -4 -7 -5 -4 -3 7
7 0 6 2 -3 1 6 0 2 -10 -14 -5 2 0 2 2 -1 4 -1 9 -6 1 -2 -4 -2 0 -3 -1 -0 -2 5 2 0 -1 2 -3 -3 -21 -2 -6 -5 -4 -4 -3 6
10 4 -0 -1 -10 1 7 -1 -6 2 -8 3 0 -0 1 0 1 -0 -0 3 -5 -0 2 -3 -8 -4 3 1 -2 3 1 -1 -2 -0 -6 -0 6 -17 -5 -4 0 -3 -6 -7 6
4 -1 -4 0 4 -1 -3 -2 5 -4 0 1 1 -1 2 -1 -4 1 1 1 1 -0 -0 -1 -9 1 -5 -8 -10 -3 -6 -6 -3 -2 -6 0 -3 -13 -3 0 1 -0 10 -4 10
-2 -4 -13 -1 4 2 2 5 1 1 5 1 -9 -2 -2 -2 6 3 -1 -2 -4 -4 -5 1 -6 0 0 -1 -7 -9 3 -10 0 -1 2 -4 -5 -5 -2 -5 -5 -2 -9 -2 -4
-5 -4 -7 9 7 3 6 -2 -1 2 -1 -5 2 -3 1 -1 -3 -1 1 -2 -2 -3 -1 -6 -0 -2 -5 -1 1 -7 -8 -5 -1 1 -0 -3 -1 -8 -2 -4 -3 -6 -1 1 4
-9 -2 10 6 -2 2 0 -2 -1 -2 8 -1 1 -1 1 2 4 -1 2 -6 -1 -2 1 -0 -0 -11 -1 -0 -3 2 0 1 -4 -3 -3 -0 -5 2 2 1 1 -2 1 2 1
-4 -4 11 12 -3 -0 -1 -0 0 -4 -1 -1 1 2 2 0 0 0 3 2 1 6 1 -1 -1 -0 -7 5 1 -0 -1 -3 -3 -5 -2 -2 -8 -0 -2 -2 1 -2 -1 3 11
-1 -3 8 -10 -1 -0 -2 -1 -1 2 -2 -0 0 -1 -0 0 4 1 -0 -3 1 1 -2 -2 -1 -0 0 -5 -6 -1 -1 1 0 -0 -5 1 -7 1 -1 -1 -1 1 -3 -5 -1
-3 -2 1 8 -1 1 1 -4 -2 -2 -3 1 -1 5 3 1 -1 -1 -1 -5 -1 1 -0 2 -1 -3 -2 0 -1 -1 -1 -1 -0 -0 0 -0 -5 -5 1 0 2 -3 -9 -8 14
-1 -4 -1 -1 -0 1 3 2 -0 -1 -0 2 -0 1 0 1 -1 -0 -0 -4 -5 -8 0 -3 -1 -1 0 -0 1 0 -1 -2 1 -2 1 -1 1 1 2 2 4 -3 2 -8 -5
-8 -3 4 -1 -0 3 -1 -1 1 -8 9 -7 3 -2 2 0 -2 -1 4 1 0 -6 -0 -2 -2 -1 -1 -1 0 -0 -1 0 0 -1 1 2 0 3 0 0 0 1 -4 4 1
1 2 0 -3 -0 -2 -2 -2 -1 1 -9 4 6 6 1 -5 -1 -4 -3 0 1 1 -0 0 -1 -2 -1 0 -1 -2 -0 -1 -0 -0 2 2 5 0 -3 -1 2 -0 2 8 -2
Height
1519 1517 1515 1513 1511 1509 1508 1505 1502 1500 1499 1495 1492 1490 1488 1484 1480 1479 1474 1475 1476 1477 1479 1480 1481 1484 1486 1487 1488 1490 1499 1501 1491 1486 1470 1466 1470 1467 1466 1461 1461 1461 1461 1462 1464
1517 1515 1513 1511 1508 1507 1506 1503 1500 1499 1496 1493 1491 1487 1484 1481 1476 1471 1469 1466 1469 1473 1474 1476 1477 1481 1483 1483 1485 1483 1493 1483 1474 1474 1470 1466 1469 1467 1467 1464 1461 1459 1458 1458 1460
1515 1513 1511 1509 1506 1503 1503 1501 1498 1496 1493 1490 1487 1484 1482 1479 1474 1465 1464 1463 1464 1469 1472 1473 1475 1477 1478 1479 1478 1474 1473 1471 1469 1471 1470 1466 1464 1464 1464 1465 1460 1457 1455 1455 1455
1513 1511 1508 1506 1504 1501 1498 1496 1495 1492 1490 1486 1483 1481 1479 1478 1477 1463 1461 1462 1464 1467 1468 1469 1471 1475 1474 1471 1469 1473 1466 1468 1465 1467 1467 1463 1461 1459 1458 1455 1455 1455 1454 1453 1454
1511 1508 1505 1502 1500 1497 1495 1492 1491 1489 1487 1483 1481 1478 1475 1476 1463 1463 1460 1459 1460 1464 1463 1465 1466 1468 1468 1466 1466 1465 1463 1463 1462 1462 1461 1458 1456 1454 1449 1446 1450 1449 1448 1448 1449
1506 1506 1502 1499 1497 1493 1491 1488 1486 1485 1483 1481 1478 1475 1475 1472 1456 1456 1455 1456 1457 1458 1460 1461 1461 1462 1463 1461 1462 1457 1456 1456 1458 1456 1455 1454 1449 1448 1442 1442 1442 1443 1443 1442 1442
1503 1502 1499 1495 1494 1488 1485 1484 1482 1481 1479 1477 1475 1473 1471 1450 1453 1453 1454 1452 1453 1453 1455 1457 1459 1462 1459 1458 1454 1453 1457 1454 1453 1452 1450 1448 1445 1442 1439 1439 1438 1438 1437 1436 1437
1501 1497 1494 1492 1489 1484 1481 1478 1476 1476 1474 1472 1470 1471 1459 1446 1446 1443 1446 1447 1448 1450 1452 1453 1454 1456 1455 1455 1451 1453 1454 1457 1446 1446 1444 1446 1438 1435 1435 1434 1432 1432 1430 1429 1429
1496 1494 1489 1489 1485 1481 1476 1472 1469 1468 1466 1467 1467 1467 1451 1442 1440 1439 1440 1441 1444 1446 1448 1451 1451 1450 1451 1454 1459 1456 1456 1454 1452 1444 1444 1442 1437 1431 1429 1429 1429 1427 1425 1420 1419
1491 1490 1486 1483 1482 1477 1473 1468 1464 1461 1461 1462 1464 1467 1444 1439 1440 1439 1439 1441 1440 1440 1445 1449 1447 1447 1449 1455 1455 1457 1457 1452 1453 1444 1441 1439 1429 1429 1428 1426 1424 1421 1416 1413 1410
1488 1485 1483 1480 1478 1474 1471 1465 1468 1464 1461 1451 1447 1442 1435 1436 1437 1439 1438 1439 1439 1439 1441 1441 1446 1447 1445 1443 1443 1448 1450 1450 1444 1441 1444 1442 1427 1426 1424 1421 1419 1414 1411 1409 1405
1484 1480 1479 1476 1475 1471 1471 1468 1466 1467 1454 1444 1440 1434 1432 1437 1438 1432 1437 1438 1434 1437 1436 1441 1437 1436 1440 1444 1447 1448 1450 1445 1440 1439 1441 1439 1423 1420 1419 1416 1414 1411 1408 1406 1401
1479 1476 1474 1474 1472 1467 1467 1466 1463 1462 1457 1433 1428 1423 1422 1429 1429 1416 1435 1433 1434 1434 1433 1435 1429 1426 1435 1441 1446 1445 1446 1445 1443 1438 1433 1433 1419 1415 1410 1409 1407 1402 1402 1400 1396
1476 1473 1470 1469 1470 1466 1463 1462 1462 1461 1459 1432 1421 1413 1414 1420 1420 1412 1420 1430 1430 1430 1430 1427 1424 1427 1429 1433 1439 1444 1433 1434 1436 1442 1446 1431 1425 1415 1411 1407 1404 1398 1394 1394 1392
1471 1469 1468 1467 1467 1464 1463 1459 1459 1458 1455 1416 1412 1411 1407 1414 1411 1408 1412 1422 1423 1423 1426 1425 1419 1421 1424 1426 1430 1430 1427 1429 1430 1436 1439 1437 1443 1405 1408 1407 1399 1390 1387 1385 1385
1467 1467 1466 1466 1463 1463 1460 1458 1458 1462 1451 1414 1411 1412 1413 1411 1409 1409 1414 1418 1420 1425 1421 1423 1419 1419 1419 1419 1422 1422 1424 1423 1426 1434 1447 1435 1436 1395 1412 1401 1391 1383 1380 1376 1379
1463 1463 1463 1462 1461 1462 1458 1458 1462 1458 1425 1422 1423 1421 1414 1411 1410 1409 1412 1417 1423 1431 1428 1423 1416 1415 1416 1420 1418 1421 1426 1441 1447 1444 1439 1421 1429 1404 1400 1395 1390 1379 1373 1369 1370
1461 1460 1460 1459 1460 1460 1460 1463 1458 1433 1430 1428 1430 1419 1411 1409 1408 1408 1412 1417 1417 1418 1424 1428 1425 1409 1406 1408 1416 1417 1423 1436 1436 1439 1430 1416 1420 1407 1391 1389 1382 1372 1365 1359 1361
1459 1459 1456 1456 1458 1459 1463 1455 1444 1437 1436 1436 1427 1419 1416 1415 1417 1410 1407 1408 1407 1411 1422 1420 1416 1395 1395 1393 1404 1410 1415 1410 1420 1420 1427 1417 1404 1392 1387 1388 1386 1372 1365 1356 1344
1457 1456 1452 1451 1455 1458 1458 1450 1446 1443 1441 1439 1440 1435 1433 1433 1427 1419 1405 1403 1401 1401 1404 1407 1411 1394 1390 1390 1396 1398 1399 1417 1417 1427 1428 1413 1409 1400 1393 1401 1390 1384 1375 1364 1357
1457 1455 1452 1449 1453 1458 1461 1453 1448 1444 1444 1445 1444 1440 1435 1437 1433 1428 1422 1410 1415 1405 1400 1405 1407 1403 1391 1393 1394 1399 1403 1404 1408 1416 1422 1423 1407 1394 1400 1404 1400 1388 1373 1368 1366
1457 1458 1451 1452 1456 1455 1460 1452 1453 1446 1445 1446 1444 1442 1438 1441 1437 1433 1427 1427 1421 1419 1410 1404 1405 1407 1399 1392 1388 1390 1394 1401 1416 1416 1412 1413 1402 1387 1398 1402 1396 1387 1376 1370 1367
1456 1453 1451 1451 1454 1455 1454 1451 1450 1446 1444 1443 1441 1442 1445 1449 1443 1438 1433 1427 1422 1421 1416 1403 1405 1407 1400 1400 1398 1406 1404 1401 1399 1401 1407 1419 1406 1387 1393 1393 1390 1385 1376 1373 1367
1457 1456 1450 1449 1451 1453 1452 1449 1448 1443 1441 1440 1439 1438 1440 1443 1440 1434 1433 1429 1424 1424 1417 1404 1403 1407 1410 1410 1410 1411 1412 1404 1409 1416 1413 1409 1398 1394 1391 1385 1388 1383 1388 1380 1368
1454 1454 1451 1449 1450 1450 1452 1449 1446 1444 1439 1435 1434 1434 1436 1438 1434 1430 1432 1429 1423 1419 1407 1400 1408 1406 1406 1405 1404 1402 1409 1409 1405 1406 1410 1402 1403 1393 1393 1389 1390 1391 1381 1378 1371
1452 1452 1450 1448 1448 1448 1448 1445 1442 1440 1441 1440 1435 1432 1434 1435 1433 1434 1430 1425 1419 1414 1410 1407 1410 1409 1407 1403 1404 1404 1402 1403 1400 1395 1394 1393 1396 1402 1399 1396 1393 1386 1379 1376 1379
1446 1448 1450 1447 1446 1448 1446 1442 1441 1442 1435 1434 1433 1429 1430 1430 1428 1427 1426 1420 1418 1417 1416 1416 1415 1417 1414 1409 1405 1406 1399 1394 1395 1403 1398 1399 1405 1403 1397 1391 1392 1387 1382 1382 1384